Track YAOGAN 13 now! 10-day predictions YAOGAN 13 is classified as:
1 37941U 11072A 24326.12691295 .00118567 00000-0 11007-2 0 9996 2 37941 97.7249 321.6627 0004784 102.9417 257.2377 15.67057681720826